Regional Weather Roundup
Issued by NWS

Home | Current Version | Previous Version | Text Only | Print | Product List | Glossary On
Versions: 1 2 3 4 5 6 7 8 9 10 11 12 13 14 15 16 17 18 19 20 21 22 23 24 25 26 27
000
ASUS45 KCYS 041410
RWRWY

WYOMING REGIONAL WEATHER ROUNDUP
NATIONAL WEATHER SERVICE CHEYENNE WY
800 AM MDT WED MAY 04 2016

NOTE:  "FAIR" INDICATES FEW OR NO CLOUDS BELOW 12,000 FEET
WITH NO SIGNIFICANT WEATHER AND/OR OBSTRUCTIONS TO VISIBILITY.

WYZ001-041500-
YELLOWSTONE NATIONAL PARK

CITY           SKY/WX    TMP DP  RH WIND       PRES   REMARKS
LK YELLOWSTONE   N/A     33  25  72 CALM      30.34S
W YELLOWSTONE  NOT AVBL

$$
WYZ002>013-054>058-071-098>099-041500-
NORTHERN WYOMING

CITY           SKY/WX    TMP DP  RH WIND       PRES   REMARKS
JACKSON        SUNNY     37  28  70 CALM      30.31R
CODY           FAIR      57  28  33 SW14      30.16S
GREYBULL       FAIR      51  37  58 VRB3      30.14S
WORLAND        FAIR      51  39  63 SW8       30.16R
SHERIDAN       FAIR      52  41  66 CALM      30.12R
BUFFALO          N/A     62  38  40 SW3       30.16S
GILLETTE       FAIR      58  42  55 SE7       30.15S
HULETT         FAIR      54  41  62 CALM      30.19R
NEWCASTLE      FAIR      52  36  54 CALM      30.20S

$$
WYZ014>020-022>026-101>103-041500-
CENTRAL WYOMING

CITY           SKY/WX    TMP DP  RH WIND       PRES   REMARKS
BIG PINEY      FAIR      39  28  64 CALM      30.33R
PINEDALE       FAIR      37  30  75 NW5       30.33S WCI  34
DUBOIS         FAIR      41  28  60 NW13      30.30S
LANDER         FAIR      50  34  54 CALM      30.22S
RIVERTON       FAIR      51  37  58 W5        30.23S
CASPER         FAIR      46  38  73 CALM      30.23R
DOUGLAS        FAIR      47  39  74 CALM      30.23S

$$
WYZ021-027>030-104>119-041500-
SOUTHERN WYOMING

CITY           SKY/WX    TMP DP  RH WIND       PRES   REMARKS
EVANSTON       FAIR      46  28  49 CALM      30.30R
KEMMERER         N/A     43  28  56 N8        30.32R
FORT BRIDGER   SUNNY     50  27  40 CALM      30.34R
ROCK SPRINGS   FAIR      45  31  58 CALM      30.30R
DIXON          FAIR      45  29  54 E7        30.35S
RAWLINS        FAIR      42  32  67 CALM      30.32S
SARATOGA       FAIR      46  30  53 SE14      30.34R
LARAMIE        FAIR      40  33  76 S6        30.33R
CHEYENNE       FAIR      50  36  58 W10       30.28R
TORRINGTON     FAIR      46  39  76 CALM      30.21R
PINE BLUFFS    FAIR      45  37  76 CALM      30.26S

$$




USA.gov is the U.S. government's official web portal to all federal, state and local government web resources and services.